Time,TemperatureF,DewpointF,PressureIn,WindDirection,WindDirectionDegrees,WindSpeedMPH,WindSpeedGustMPH,Humidity,HourlyPrecipIn,Conditions,Clouds,dailyrainin,SoftwareType,DateUTC
2013-07-07 00:07:00,75.4,45.0,29.68,SSW,205,0.0,-999.0,34,-99.99,,,0.00,weatherlink.com 1.10,2013-07-07 07:07:00,
2013-07-07 00:22:00,74.9,43.0,29.68,SSW,205,4.0,-999.0,32,-99.99,,,0.00,weatherlink.com 1.10,2013-07-07 07:22:00,
2013-07-07 00:37:00,75.1,42.0,29.68,SSW,206,1.0,-999.0,30,-99.99,,,0.00,weatherlink.com 1.10,2013-07-07 07:37:00,
2013-07-07 00:52:00,75.3,41.0,29.68,SW,215,5.0,-999.0,29,-99.99,,,0.00,weatherlink.com 1.10,2013-07-07 07:52:00,
2013-07-07 01:07:00,75.1,42.0,29.68,SW,219,3.0,-999.0,30,-99.99,,,0.00,weatherlink.com 1.10,2013-07-07 08:07:00,
2013-07-07 01:22:00,75.3,42.0,29.68,SSW,202,0.0,-999.0,30,-99.99,,,0.00,weatherlink.com 1.10,2013-07-07 08:22:00,
2013-07-07 01:37:00,75.6,42.0,29.68,SSW,202,0.0,-999.0,30,-99.99,,,0.00,weatherlink.com 1.10,2013-07-07 08:37:00,
2013-07-07 01:52:00,75.3,43.0,29.68,SSW,202,0.0,-999.0,31,-99.99,,,0.00,weatherlink.com 1.10,2013-07-07 08:52:00,
2013-07-07 02:07:00,74.7,44.0,29.68,SSW,202,0.0,-999.0,33,-99.99,,,0.00,weatherlink.com 1.10,2013-07-07 09:07:00,
2013-07-07 02:23:00,73.9,44.0,29.67,SSW,201,1.0,-999.0,34,-99.99,,,0.00,weatherlink.com 1.10,2013-07-07 09:23:00,
2013-07-07 02:38:00,73.2,43.0,29.67,SSW,198,0.0,-999.0,34,-99.99,,,0.00,weatherlink.com 1.10,2013-07-07 09:38:00,
2013-07-07 02:53:00,73.0,44.0,29.68,SSW,198,0.0,-999.0,35,-99.99,,,0.00,weatherlink.com 1.10,2013-07-07 09:53:00,
2013-07-07 03:08:00,72.7,43.0,29.67,SSW,198,0.0,-999.0,35,-99.99,,,0.00,weatherlink.com 1.10,2013-07-07 10:08:00,
2013-07-07 03:23:00,72.5,44.0,29.67,SSW,198,0.0,-999.0,36,-99.99,,,0.00,weatherlink.com 1.10,2013-07-07 10:23:00,
2013-07-07 03:38:00,72.0,44.0,29.68,SSW,198,0.0,-999.0,37,-99.99,,,0.00,weatherlink.com 1.10,2013-07-07 10:38:00,
2013-07-07 03:53:00,71.5,46.0,29.67,SSW,198,0.0,-999.0,40,-99.99,,,0.00,weatherlink.com 1.10,2013-07-07 10:53:00,
2013-07-07 04:08:00,71.5,46.0,29.67,SSW,198,0.0,-999.0,40,-99.99,,,0.00,weatherlink.com 1.10,2013-07-07 11:08:00,
2013-07-07 04:23:00,70.9,45.0,29.67,SSW,198,0.0,-999.0,39,-99.99,,,0.00,weatherlink.com 1.10,2013-07-07 11:23:00,
2013-07-07 04:38:00,70.1,45.0,29.68,SSW,198,0.0,-999.0,41,-99.99,,,0.00,weatherlink.com 1.10,2013-07-07 11:38:00,
2013-07-07 04:53:00,69.6,46.0,29.68,SSW,198,0.0,-999.0,43,-99.99,,,0.00,weatherlink.com 1.10,2013-07-07 11:53:00,
2013-07-07 05:09:00,69.4,46.0,29.68,SSW,198,0.0,-999.0,43,-99.99,,,0.00,weatherlink.com 1.10,2013-07-07 12:09:00,
2013-07-07 05:24:00,69.1,45.0,29.69,SSW,198,0.0,-999.0,42,-99.99,,,0.00,weatherlink.com 1.10,2013-07-07 12:24:00,
2013-07-07 05:39:00,68.3,45.0,29.69,SSW,198,0.0,-999.0,43,-99.99,,,0.00,weatherlink.com 1.10,2013-07-07 12:39:00,
2013-07-07 05:54:00,67.8,44.0,29.70,SSW,198,0.0,-999.0,42,-99.99,,,0.00,weatherlink.com 1.10,2013-07-07 12:54:00,
2013-07-07 06:09:00,67.3,43.0,29.70,SSW,198,0.0,-999.0,41,-99.99,,,0.00,weatherlink.com 1.10,2013-07-07 13:09:00,
2013-07-07 06:24:00,66.9,43.0,29.73,SSW,198,0.0,-999.0,42,-99.99,,,0.00,weatherlink.com 1.10,2013-07-07 13:24:00,
2013-07-07 06:39:00,66.8,42.0,29.73,SSW,198,0.0,-999.0,41,-99.99,,,0.00,weatherlink.com 1.10,2013-07-07 13:39:00,
2013-07-07 06:54:00,67.1,42.0,29.73,SSW,198,0.0,-999.0,41,-99.99,,,0.00,weatherlink.com 1.10,2013-07-07 13:54:00,
2013-07-07 07:09:00,68.4,43.0,29.73,SSW,198,0.0,-999.0,40,-99.99,,,0.00,weatherlink.com 1.10,2013-07-07 14:09:00,
2013-07-07 07:24:00,70.6,41.0,29.75,SSW,198,0.0,-999.0,34,-99.99,,,0.00,weatherlink.com 1.10,2013-07-07 14:24:00,
2013-07-07 07:39:00,73.5,39.0,29.74,SSW,198,0.0,-999.0,29,-99.99,,,0.00,weatherlink.com 1.10,2013-07-07 14:39:00,
2013-07-07 07:54:00,76.3,39.0,29.73,SSW,198,0.0,-999.0,26,-99.99,,,0.00,weatherlink.com 1.10,2013-07-07 14:54:00,
2013-07-07 08:10:00,79.2,38.0,29.73,SSW,198,0.0,-999.0,23,-99.99,,,0.00,weatherlink.com 1.10,2013-07-07 15:10:00,
2013-07-07 08:25:00,81.2,38.0,29.73,SSW,198,3.0,-999.0,21,-99.99,,,0.00,weatherlink.com 1.10,2013-07-07 15:25:00,
2013-07-07 08:40:00,83.0,38.0,29.73,SSW,198,1.0,-999.0,20,-99.99,,,0.00,weatherlink.com 1.10,2013-07-07 15:40:00,
2013-07-07 08:55:00,85.1,36.0,29.72,SSW,192,3.0,-999.0,17,-99.99,,,0.00,weatherlink.com 1.10,2013-07-07 15:55:00,
2013-07-07 09:10:00,87.2,34.0,29.72,South,182,5.0,-999.0,15,-99.99,,,0.00,weatherlink.com 1.10,2013-07-07 16:10:00,
2013-07-07 09:25:00,88.8,34.0,29.72,South,180,5.0,-999.0,14,-99.99,,,0.00,weatherlink.com 1.10,2013-07-07 16:25:00,
2013-07-07 09:40:00,89.7,33.0,29.72,South,170,6.0,-999.0,13,-99.99,,,0.00,weatherlink.com 1.10,2013-07-07 16:40:00,
2013-07-07 09:55:00,91.4,32.0,29.72,SSE,154,4.0,-999.0,12,-99.99,,,0.00,weatherlink.com 1.10,2013-07-07 16:55:00,
2013-07-07 10:10:00,92.5,33.0,29.71,SSE,162,4.0,-999.0,12,-99.99,,,0.00,weatherlink.com 1.10,2013-07-07 17:10:00,
2013-07-07 10:26:00,92.7,33.0,29.71,SSE,167,4.0,-999.0,12,-99.99,,,0.00,weatherlink.com 1.10,2013-07-07 17:26:00,
2013-07-07 10:41:00,94.0,34.0,29.71,SSE,167,6.0,-999.0,12,-99.99,,,0.00,weatherlink.com 1.10,2013-07-07 17:41:00,
2013-07-07 10:56:00,94.7,30.0,29.71,SE,145,2.0,-999.0,10,-99.99,,,0.00,weatherlink.com 1.10,2013-07-07 17:56:00,
2013-07-07 11:11:00,96.8,32.0,29.71,SSE,148,3.0,-999.0,10,-99.99,,,0.00,weatherlink.com 1.10,2013-07-07 18:11:00,
2013-07-07 11:26:00,99.0,31.0,29.71,SSW,205,3.0,-999.0,9,-99.99,,,0.00,weatherlink.com 1.10,2013-07-07 18:26:00,
2013-07-07 11:41:00,100.7,26.0,29.70,SSW,204,6.0,-999.0,7,-99.99,,,0.00,weatherlink.com 1.10,2013-07-07 18:41:00,
2013-07-07 11:56:00,101.5,27.0,29.70,SSW,205,4.0,-999.0,7,-99.99,,,0.00,weatherlink.com 1.10,2013-07-07 18:56:00,
2013-07-07 12:11:00,101.2,30.0,29.69,South,175,5.0,-999.0,8,-99.99,,,0.00,weatherlink.com 1.10,2013-07-07 19:11:00,
2013-07-07 12:26:00,100.2,29.0,29.69,SSE,155,4.0,-999.0,8,-99.99,,,0.00,weatherlink.com 1.10,2013-07-07 19:26:00,
2013-07-07 12:41:00,101.2,33.0,29.69,SSE,166,6.0,-999.0,9,-99.99,,,0.00,weatherlink.com 1.10,2013-07-07 19:41:00,
2013-07-07 12:56:00,100.7,35.0,29.68,SSE,151,7.0,-999.0,10,-99.99,,,0.00,weatherlink.com 1.10,2013-07-07 19:56:00,
2013-07-07 13:12:00,102.0,33.0,29.67,SSE,165,9.0,-999.0,9,-99.99,,,0.00,weatherlink.com 1.10,2013-07-07 20:12:00,
2013-07-07 13:27:00,101.7,33.0,29.67,SSE,168,9.0,-999.0,9,-99.99,,,0.00,weatherlink.com 1.10,2013-07-07 20:27:00,
2013-07-07 13:42:00,100.7,35.0,29.67,SSE,161,9.0,-999.0,10,-99.99,,,0.00,weatherlink.com 1.10,2013-07-07 20:42:00,
2013-07-07 13:57:00,101.2,35.0,29.67,South,191,15.0,-999.0,10,-99.99,,,0.00,weatherlink.com 1.10,2013-07-07 20:57:00,
2013-07-07 14:12:00,100.2,34.0,29.67,South,172,17.0,-999.0,10,-99.99,,,0.00,weatherlink.com 1.10,2013-07-07 21:12:00,
2013-07-07 14:27:00,101.7,33.0,29.67,WSW,245,12.0,-999.0,9,-99.99,,,0.00,weatherlink.com 1.10,2013-07-07 21:27:00,
2013-07-07 14:42:00,101.0,32.0,29.67,SSE,163,15.0,-999.0,9,-99.99,,,0.00,weatherlink.com 1.10,2013-07-07 21:42:00,
2013-07-07 14:57:00,100.2,34.0,29.66,South,188,22.0,-999.0,10,-99.99,,,0.00,weatherlink.com 1.10,2013-07-07 21:57:00,
2013-07-07 15:12:00,100.2,37.0,29.67,South,186,22.0,-999.0,11,-99.99,,,0.00,weatherlink.com 1.10,2013-07-07 22:12:00,
2013-07-07 15:28:00,100.2,34.0,29.67,South,173,17.0,-999.0,10,-99.99,,,0.00,weatherlink.com 1.10,2013-07-07 22:28:00,
2013-07-07 15:43:00,100.2,34.0,29.66,South,178,25.0,-999.0,10,-99.99,,,0.00,weatherlink.com 1.10,2013-07-07 22:43:00,
2013-07-07 15:58:00,100.2,34.0,29.67,South,184,14.0,-999.0,10,-99.99,,,0.00,weatherlink.com 1.10,2013-07-07 22:58:00,
2013-07-07 16:13:00,100.2,34.0,29.66,SSW,195,11.0,-999.0,10,-99.99,,,0.00,weatherlink.com 1.10,2013-07-07 23:13:00,
2013-07-07 16:28:00,99.7,34.0,29.67,South,182,20.0,-999.0,10,-99.99,,,0.00,weatherlink.com 1.10,2013-07-07 23:28:00,
2013-07-07 16:43:00,99.0,36.0,29.67,South,177,20.0,-999.0,11,-99.99,,,0.00,weatherlink.com 1.10,2013-07-07 23:43:00,
2013-07-07 16:58:00,98.2,35.0,29.67,South,178,16.0,-999.0,11,-99.99,,,0.00,weatherlink.com 1.10,2013-07-07 23:58:00,
2013-07-07 17:13:00,98.5,38.0,29.67,SW,227,15.0,-999.0,12,-99.99,,,0.00,weatherlink.com 1.10,2013-07-08 00:13:00,
2013-07-07 17:28:00,98.0,37.0,29.67,SSW,195,20.0,-999.0,12,-99.99,,,0.00,weatherlink.com 1.10,2013-07-08 00:28:00,
2013-07-07 17:43:00,97.8,37.0,29.67,South,183,14.0,-999.0,12,-99.99,,,0.00,weatherlink.com 1.10,2013-07-08 00:43:00,
2013-07-07 17:59:00,97.5,39.0,29.67,South,190,15.0,-999.0,13,-99.99,,,0.00,weatherlink.com 1.10,2013-07-08 00:59:00,
2013-07-07 18:14:00,95.9,39.0,29.68,South,188,16.0,-999.0,14,-99.99,,,0.00,weatherlink.com 1.10,2013-07-08 01:14:00,
2013-07-07 18:29:00,97.1,34.0,29.68,West,266,8.0,-999.0,11,-99.99,,,0.00,weatherlink.com 1.10,2013-07-08 01:29:00,
2013-07-07 18:44:00,98.0,33.0,29.68,West,276,10.0,-999.0,10,-99.99,,,0.00,weatherlink.com 1.10,2013-07-08 01:44:00,
2013-07-07 18:59:00,97.8,33.0,29.68,SW,224,9.0,-999.0,10,-99.99,,,0.00,weatherlink.com 1.10,2013-07-08 01:59:00,
2013-07-07 19:14:00,96.8,34.0,29.68,West,265,11.0,-999.0,11,-99.99,,,0.00,weatherlink.com 1.10,2013-07-08 02:14:00,
2013-07-07 19:29:00,95.9,36.0,29.67,WNW,297,5.0,-999.0,12,-99.99,,,0.00,weatherlink.com 1.10,2013-07-08 02:29:00,
2013-07-07 19:44:00,94.9,37.0,29.67,WNW,302,13.0,-999.0,13,-99.99,,,0.00,weatherlink.com 1.10,2013-07-08 02:44:00,
2013-07-07 19:59:00,92.9,33.0,29.69,WNW,295,9.0,-999.0,12,-99.99,,,0.00,weatherlink.com 1.10,2013-07-08 02:59:00,
2013-07-07 20:14:00,91.8,32.0,29.70,West,274,6.0,-999.0,12,-99.99,,,0.00,weatherlink.com 1.10,2013-07-08 03:14:00,
2013-07-07 20:29:00,91.0,34.0,29.68,WNW,286,4.0,-999.0,13,-99.99,,,0.00,weatherlink.com 1.10,2013-07-08 03:29:00,
2013-07-07 20:44:00,90.1,33.0,29.69,WNW,294,11.0,-999.0,13,-99.99,,,0.00,weatherlink.com 1.10,2013-07-08 03:44:00,
2013-07-07 21:00:00,89.3,32.0,29.70,West,280,5.0,-999.0,13,-99.99,,,0.00,weatherlink.com 1.10,2013-07-08 04:00:00,
2013-07-07 21:15:00,89.0,32.0,29.71,WNW,286,7.0,-999.0,13,-99.99,,,0.00,weatherlink.com 1.10,2013-07-08 04:15:00,
2013-07-07 21:30:00,88.8,32.0,29.70,West,261,6.0,-999.0,13,-99.99,,,0.00,weatherlink.com 1.10,2013-07-08 04:30:00,
2013-07-07 21:45:00,87.0,36.0,29.71,South,187,4.0,-999.0,16,-99.99,,,0.00,weatherlink.com 1.10,2013-07-08 04:45:00,
2013-07-07 22:00:00,85.7,35.0,29.72,South,188,0.0,-999.0,16,-99.99,,,0.00,weatherlink.com 1.10,2013-07-08 05:00:00,
2013-07-07 22:15:00,85.3,34.0,29.73,SSW,199,0.0,-999.0,16,-99.99,,,0.00,weatherlink.com 1.10,2013-07-08 05:15:00,
2013-07-07 22:30:00,84.3,33.0,29.73,SSW,211,0.0,-999.0,16,-99.99,,,0.00,weatherlink.com 1.10,2013-07-08 05:30:00,
2013-07-07 22:45:00,84.0,33.0,29.74,SSW,194,0.0,-999.0,16,-99.99,,,0.00,weatherlink.com 1.10,2013-07-08 05:45:00,
2013-07-07 23:00:00,83.6,33.0,29.75,SSW,194,0.0,-999.0,16,-99.99,,,0.00,weatherlink.com 1.10,2013-07-08 06:00:00,
2013-07-07 23:15:00,83.2,34.0,29.75,SSW,199,0.0,-999.0,17,-99.99,,,0.00,weatherlink.com 1.10,2013-07-08 06:15:00,
2013-07-07 23:30:00,82.4,33.0,29.73,SSW,199,2.0,-999.0,17,-99.99,,,0.00,weatherlink.com 1.10,2013-07-08 06:30:00,
2013-07-07 23:45:00,81.8,33.0,29.73,SSW,199,0.0,-999.0,17,-99.99,,,0.00,weatherlink.com 1.10,2013-07-08 06:45:00,